This demonstration page uses our WeatherBlox Daily Observations layout. Learn more.

Left ArrowRight Arrow

Hourly Observations for August 25, 2018

Temp ( °F °C ) Dew Point ( °F °C ) Humidity (%) Winds ( mph kmh ) Pressure ( in mb ) Visibility ( mi km ) Precip ( " mm )
12:17 am 00:17 Cloudy 68 20 66 19 94 94 S 7 11 30.06 1018 10 16.0934 N/A
12:36 am 00:36 Cloudy 68 20 66 19 94 94 SSE 7 11 30.06 1018 10 16.0934 N/A
12:57 am 00:57 Cloudy 68 20 68 20 100 100 S 5 7 30.06 1018 10 16.0934 N/A
1:17 am 01:17 Cloudy 68 20 68 20 100 100 S 7 11 30.06 1018 10 16.0934 N/A
1:36 am 01:36 Cloudy 68 20 68 20 100 100 S 8 13 30.06 1018 10 16.0934 N/A
1:57 am 01:57 Cloudy 68 20 68 20 100 100 S 6 9 30.06 1018 10 16.0934 N/A
2:16 am 02:16 Cloudy 68 20 68 20 100 100 S 6 9 30.06 1018 10 16.0934 N/A
2:36 am 02:36 Cloudy 68 20 68 20 100 100 S 6 9 30.06 1018 10 16.0934 N/A
2:57 am 02:57 Cloudy 68 20 68 20 100 100 S 7 11 30.06 1018 10 16.0934 N/A
3:16 am 03:16 Cloudy 68 20 68 20 100 100 S 8 13 30.06 1018 10 16.0934 N/A
3:37 am 03:37 Cloudy 68 20 68 20 100 100 S 7 11 30.06 1018 10 16.0934 N/A
3:57 am 03:57 Cloudy 68 20 68 20 100 100 S 8 13 30.06 1018 10 16.0934 N/A
4:16 am 04:16 Cloudy 68 20 68 20 100 100 S 7 11 30.06 1018 10 16.0934 N/A
4:37 am 04:37 Cloudy 68 20 68 20 100 100 S 8 13 30.06 1018 10 16.0934 N/A
4:57 am 04:57 Cloudy 68 20 68 20 100 100 S 8 13 30.06 1018 10 16.0934 N/A
5:16 am 05:16 Cloudy 68 20 68 20 100 100 S 8 13 30.06 1018 10 16.0934 N/A
5:37 am 05:37 Cloudy 68 20 68 20 100 100 S 9 15 30.06 1018 10 16.0934 N/A
5:57 am 05:57 Cloudy 68 20 68 20 100 100 S 9 15 30.03 1017 10 16.0934 N/A
6:16 am 06:16 Mostly Cloudy 68 20 68 20 100 100 S 8 13 30.03 1017 10 16.0934 N/A
6:37 am 06:37 Mostly Cloudy 68 20 68 20 100 100 S 10 17 30.03 1017 10 16.0934 N/A
6:56 am 06:56 Cloudy 68 20 68 20 100 100 S 13 20 30.03 1017 10 16.0934 N/A
7:16 am 07:16 Cloudy 68 20 68 20 100 100 S 13 20 30.03 1017 10 16.0934 N/A
7:37 am 07:37 Cloudy 68 20 68 20 100 100 S 10 17 30.03 1017 10 16.0934 N/A
7:56 am 07:56 Cloudy 70 21 68 20 94 94 S 13 20 30 1016 10 16.0934 N/A
8:16 am 08:16 Mostly Cloudy 68 20 68 20 100 100 S 13 20 30.03 1017 10 16.0934 N/A
8:37 am 08:37 Mostly Cloudy 68 20 68 20 100 100 SW 9 15 30.06 1018 10 16.0934 N/A
8:56 am 08:56 Cloudy 68 20 68 20 100 100 SSW 7 11 30.09 1019 10 16.0934 N/A
9:16 am 09:16 Cloudy 66 19 66 19 100 100 S 6 9 30.06 1018 4 6.43736 N/A
9:37 am 09:37 Mostly Cloudy 66 19 66 19 100 100 S 12 19 30.06 1018 7 11.26538 N/A
9:56 am 09:56 Mostly Cloudy 66 19 66 19 100 100 S 10 17 30.06 1018 7 11.26538 N/A
10:17 am 10:17 Mostly Cloudy 68 20 68 20 100 100 SSW 13 20 30.09 1019 7 11.26538 N/A
10:36 am 10:36 Partly Cloudy 68 20 68 20 100 100 SSW 12 19 30.06 1018 10 16.0934 N/A
10:56 am 10:56 Partly Cloudy 70 21 70 21 100 100 SW 14 22 30.09 1019 10 16.0934 N/A
11:17 am 11:17 Cloudy 68 20 68 20 100 100 SW 15 24 30.12 1020 5 8.0467 N/A
11:36 am 11:36 Cloudy 68 20 68 20 100 100 SW 10 17 30.09 1019 5 8.0467 N/A
11:57 am 11:57 Cloudy 68 20 68 20 100 100 SSW 15 24 30.06 1018 5 8.0467 N/A
12:16 pm 12:16 Cloudy 68 20 68 20 100 100 SSW 16 26 30.06 1018 5 8.0467 N/A
12:36 pm 12:36 Cloudy 68 20 68 20 100 100 SW 13 20 30.09 1019 5 8.0467 N/A
12:57 pm 12:57 Cloudy 68 20 68 20 100 100 SSW 15 24 30.09 1019 2.5 4.02335 N/A
1:16 pm 13:16 Cloudy 68 20 68 20 100 100 S 10 17 30.09 1019 5 8.0467 N/A
1:36 pm 13:36 Cloudy 70 21 70 21 100 100 S 12 19 30.06 1018 5 8.0467 N/A
1:57 pm 13:57 Cloudy 72 22 72 22 100 100 S 12 19 30.03 1017 7 11.26538 N/A
2:16 pm 14:16 Cloudy 73 23 73 23 100 100 S 9 15 30.03 1017 7 11.26538 N/A
2:36 pm 14:36 Cloudy 73 23 73 23 100 100 SSE 7 11 30.06 1018 7 11.26538 N/A
2:57 pm 14:57 Cloudy 73 23 73 23 100 100 S 8 13 30.03 1017 10 16.0934 N/A
3:16 pm 15:16 Cloudy 75 24 73 23 94 94 SSE 9 15 30.03 1017 10 16.0934 N/A
3:36 pm 15:36 Cloudy 77 25 75 24 94 94 S 10 17 30 1016 10 16.0934 N/A
3:57 pm 15:57 Cloudy 77 25 75 24 94 94 SSE 14 22 30 1016 10 16.0934 N/A
4:16 pm 16:16 Cloudy 75 24 73 23 94 94 S 9 15 30 1016 10 16.0934 N/A
4:36 pm 16:36 Cloudy 75 24 73 23 94 94 S 9 15 30 1016 10 16.0934 N/A
4:57 pm 16:57 Cloudy 75 24 73 23 94 94 NE 9 15 30 1016 10 16.0934 N/A
5:16 pm 17:16 Cloudy 72 22 72 22 100 100 SSE 5 7 30.03 1017 0.25 0.402335 N/A
5:37 pm 17:37 Cloudy 72 22 72 22 100 100 ESE 8 13 30 1016 1 1.60934 N/A
5:56 pm 17:56 Cloudy 72 22 72 22 100 100 SE 5 7 30.03 1017 10 16.0934 N/A
6:16 pm 18:16 Cloudy 72 22 72 22 100 100 Calm 30 1016 10 16.0934 N/A
6:37 pm 18:37 Cloudy 73 23 73 23 100 100 S 3 6 30 1016 10 16.0934 N/A
6:56 pm 18:56 Cloudy 73 23 73 23 100 100 SSE 6 9 30 1016 10 16.0934 N/A
7:16 pm 19:16 Mostly Cloudy 73 23 73 23 100 100 SSE 7 11 30 1016 10 16.0934 N/A
7:37 pm 19:37 Mostly Cloudy 73 23 73 23 100 100 SE 7 11 30 1016 10 16.0934 N/A
7:56 pm 19:56 Cloudy 72 22 72 22 100 100 SE 7 11 30 1016 10 16.0934 N/A
8:16 pm 20:16 Cloudy 72 22 72 22 100 100 SE 8 13 30 1016 10 16.0934 N/A
8:36 pm 20:36 Cloudy 72 22 72 22 100 100 SSE 6 9 30 1016 10 16.0934 N/A
8:56 pm 20:56 Cloudy 72 22 72 22 100 100 SSE 7 11 30 1016 10 16.0934 N/A
9:17 pm 21:17 Mostly Cloudy 72 22 72 22 100 100 SSE 10 17 30 1016 10 16.0934 N/A
9:36 pm 21:36 Mostly Cloudy 72 22 72 22 100 100 S 8 13 30 1016 10 16.0934 N/A
9:57 pm 21:57 Mostly Cloudy 72 22 72 22 100 100 S 6 9 30.03 1017 10 16.0934 N/A
10:16 pm 22:16 Mostly Cloudy 72 22 72 22 100 100 S 8 13 30.03 1017 10 16.0934 N/A
10:36 pm 22:36 Mostly Cloudy 73 23 73 23 100 100 S 6 9 30.03 1017 7 11.26538 N/A
10:57 pm 22:57 Mostly Cloudy 72 22 72 22 100 100 Calm 30.03 1017 10 16.0934 N/A
11:16 pm 23:16 Mostly Cloudy 72 22 72 22 100 100 Calm 30.03 1017 7 11.26538 N/A
11:36 pm 23:36 Mostly Cloudy 70 21 70 21 100 100 Calm 30.06 1018 5 8.0467 N/A
11:57 pm 23:57 Partly Cloudy 72 22 72 22 100 100 S 3 6 30.03 1017 7 11.26538 N/A

Powered by AerisWeather